N2RF KBDL-KHFD

Flight info

Callsign N2RF
Flight time 0h 6m
Altitude VFR/025
Route
Aircraft C172/L-VGD/C

Departure

Time 2026-04-25 14:34
Airport Bradley International Airport (KBDL)

Arrival

Time 2026-04-25 14:40
Airport Hartford Brainard Airport (KHFD)
Time Latitude Longitude Altitude Speed Heading
2026-04-25 14:28 41.93729 -72.69471 184 ft 0 kts 124°
2026-04-25 14:30 41.93735 -72.69441 175 ft 7 kts 65°
2026-04-25 14:30 41.93749 -72.69397 175 ft 0 kts 77°
2026-04-25 14:31 41.93747 -72.69350 176 ft 8 kts 121°
2026-04-25 14:31 41.93722 -72.69297 177 ft 12 kts 93°
2026-04-25 14:31 41.93790 -72.69183 177 ft 18 kts 45°
2026-04-25 14:31 41.93876 -72.69069 175 ft 17 kts 44°
2026-04-25 14:32 41.93911 -72.69025 174 ft 0 kts 44°
2026-04-25 14:32 41.93925 -72.69005 173 ft 9 kts 45°
2026-04-25 14:33 41.93936 -72.68911 173 ft 12 kts 122°
2026-04-25 14:33 41.93850 -72.68789 173 ft 38 kts 135°
2026-04-25 14:33 41.93548 -72.68388 205 ft 76 kts 132°
2026-04-25 14:33 41.93166 -72.67814 380 ft 86 kts 134°
2026-04-25 14:34 41.92708 -72.67249 647 ft 91 kts 140°
2026-04-25 14:34 41.92180 -72.66834 1022 ft 86 kts 152°
2026-04-25 14:34 41.91668 -72.66505 1482 ft 81 kts 153°
2026-04-25 14:34 41.91132 -72.66142 1840 ft 88 kts 153°
2026-04-25 14:35 41.90577 -72.65715 2153 ft 102 kts 145°
2026-04-25 14:35 41.89995 -72.65066 2416 ft 113 kts 138°
2026-04-25 14:35 41.89358 -72.64362 2544 ft 123 kts 146°
2026-04-25 14:35 41.88605 -72.63743 2605 ft 129 kts 149°
2026-04-25 14:36 41.87823 -72.63155 2679 ft 128 kts 153°
2026-04-25 14:36 41.87055 -72.62599 2858 ft 123 kts 153°
2026-04-25 14:36 41.86255 -72.62162 2825 ft 127 kts 166°
2026-04-25 14:36 41.85329 -72.62044 2482 ft 139 kts 183°
2026-04-25 14:37 41.84448 -72.62472 2363 ft 133 kts 201°
2026-04-25 14:37 41.83600 -72.63105 2030 ft 140 kts 213°
2026-04-25 14:37 41.82803 -72.63829 1833 ft 138 kts 212°
2026-04-25 14:37 41.81931 -72.64366 1571 ft 139 kts 189°
2026-04-25 14:38 41.80996 -72.64445 1507 ft 130 kts 175°
2026-04-25 14:38 41.80194 -72.63960 1401 ft 129 kts 146°
2026-04-25 14:38 41.79403 -72.63441 1299 ft 129 kts 173°
2026-04-25 14:38 41.78493 -72.63641 1056 ft 137 kts 191°
2026-04-25 14:39 41.77616 -72.63963 845 ft 118 kts 195°
2026-04-25 14:39 41.76873 -72.64196 573 ft 102 kts 189°
2026-04-25 14:39 41.76189 -72.64370 384 ft 96 kts 188°
2026-04-25 14:39 41.75535 -72.64503 285 ft 93 kts 186°
2026-04-25 14:40 41.74940 -72.64609 176 ft 83 kts 183°
2026-04-25 14:40 41.74376 -72.64726 47 ft 78 kts 183°
2026-04-25 14:40 41.73941 -72.64812 21 ft 47 kts 187°
2026-04-25 14:40 41.73674 -72.64870 19 ft 33 kts 187°
2026-04-25 14:41 41.73480 -72.64911 16 ft 21 kts 190°
2026-04-25 14:41 41.73391 -72.64979 17 ft 14 kts 285°
2026-04-25 14:41 41.73413 -72.65021 17 ft 0 kts 313°
2026-04-25 14:42 41.73478 -72.65026 17 ft 8 kts
2026-04-25 14:42 41.73536 -72.65015 17 ft 9 kts
2026-04-25 14:43 41.73600 -72.65001 18 ft 10 kts
2026-04-25 14:43 41.73670 -72.64987 18 ft 11 kts
2026-04-25 14:43 41.73744 -72.64971 19 ft 10 kts
2026-04-25 14:43 41.73791 -72.65016 19 ft 8 kts 353°
2026-04-25 14:44 41.73837 -72.65008 19 ft 6 kts 357°
2026-04-25 14:44 41.73854 -72.65077 19 ft 11 kts 278°
2026-04-25 14:44 41.73878 -72.65138 19 ft 9 kts 69°
2026-04-25 14:44 41.73879 -72.65131 19 ft 0 kts 94°